This demonstration page uses our WeatherBlox Daily Observations layout. Learn more.

39.01783, -85.05884

Hourly Observations for February 7, 2020

Temp ( °F °C ) Dew Point ( °F °C ) Humidity (%) Winds ( mph kmh ) Pressure ( in mb ) Visibility ( mi km ) Precip ( " mm )
12:19 am 00:19 Cloudy with Light Snow 29 -1.7 25 -3.9 85 85 NNW 10 17 29.48 998 2.5 4.02335 0.001 0.001
12:21 am 00:21 Cloudy with Light Snow 29 -1.7 25 -3.9 85 85 NNW 9 15 29.48 998 1.5 2.41401 0.001 0.001
12:52 am 00:52 Cloudy with Light Snow 29 -1.7 25 -3.9 85 85 NNW 10 17 29.43 997 1.5 2.41401 0.01 0.254
1:52 am 01:52 Cloudy with Light Snow 28 -2.2 25 -3.9 88 88 NNW 12 19 29.41 996 4 6.43736 0.01 0.254
2:18 am 02:18 Cloudy with Light Snow 28 -2.2 24 -4.4 85 85 NNW 14 22 29.44 997 4 6.43736 0.001 0.001
2:29 am 02:29 Cloudy with Light Snow 28 -2.2 25 -3.9 88 88 NW 13 20 29.44 997 2 3.21868 0.001 0.001
2:52 am 02:52 Cloudy with Light Snow 28 -2.2 24 -4.4 85 85 NW 12 19 29.41 996 1.75 2.816345 0.001 0.001
3:12 am 03:12 Cloudy with Light Snow 27 -2.8 24 -4.4 89 89 NW 16 26 29.47 998 2 3.21868 0.001 0.001
3:44 am 03:44 Cloudy with Light Snow 27 -2.8 24 -4.4 89 89 NW 12 19 29.48 998 2.5 4.02335 0.001 0.001
3:52 am 03:52 Cloudy with Light Snow 27 -2.8 24 -4.4 89 89 NNW 12 19 29.43 997 3 4.82802 0.001 0.001
4:30 am 04:30 Cloudy with Light Snow 27 -2.8 23 -5 85 85 NW 14 22 29.5 999 2.5 4.02335 0.01 0.254
4:52 am 04:52 Cloudy with Light Snow 27 -2.8 24 -4.4 89 89 WNW 9 15 29.46 998 2 3.21868 0.01 0.254
5:11 am 05:11 Cloudy with Light Snow 27 -2.8 24 -4.4 89 89 WNW 12 19 29.51 999 1.5 2.41401 0.001 0.001
5:52 am 05:52 Cloudy with Light Snow 27 -2.8 23 -5 85 85 WNW 12 19 29.49 999 1.5 2.41401 0.01 0.254
6:52 am 06:52 Cloudy with Light Snow 27 -2.8 23 -5 85 85 WNW 13 20 29.53 1000 1.5 2.41401 0.01 0.254
7:52 am 07:52 Cloudy with Light Snow 27 -2.8 23 -5 85 85 W 14 22 29.57 1001 2 3.21868 0.001 0.001
8:07 am 08:07 Cloudy with Light Snow 27 -2.8 23 -5 85 85 WNW 14 22 29.63 1003 1 1.60934 0.001 0.001
8:52 am 08:52 Cloudy with Light Snow 27 -2.8 22 -5.6 81 81 W 17 28 29.61 1003 1.5 2.41401 0.001 0.001
8:57 am 08:57 Cloudy with Light Snow 27 -2.8 22 -5.6 81 81 WNW 15 24 29.66 1004 3 4.82802 0.001 0.001
9:09 am 09:09 Cloudy with Light Snow 27 -2.8 22 -5.6 81 81 WNW 16 26 29.66 1004 2 3.21868 0.001 0.001
9:52 am 09:52 Cloudy with Light Snow 27 -2.8 22 -5.6 81 81 WNW 15 24 29.65 1004 2 3.21868 0.001 0.001
10:52 am 10:52 Cloudy with Light Snow 29 -1.7 22 -5.6 75 75 WNW 17 28 29.69 1006 4 6.43736 0.001 0.001
11:52 am 11:52 Cloudy 30 -1.1 22 -5.6 72 72 WNW 16 26 29.73 1007 10 16.0934 0.001 0.001
12:52 pm 12:52 Cloudy 32 0 23 -5 69 69 NW 17 28 29.75 1008 10 16.0934 0 0
1:52 pm 13:52 Cloudy 32 0 22 -5.6 66 66 WNW 17 28 29.77 1008 10 16.0934 0 0
2:52 pm 14:52 Cloudy 32 0 21 -6.1 64 64 WNW 14 22 29.8 1009 10 16.0934 0 0
2:56 pm 14:56 Cloudy 32 0 21 -6.1 64 64 WNW 15 24 29.84 1010 10 16.0934 0 0
3:52 pm 15:52 Cloudy 32 0 23 -5 69 69 WNW 12 19 29.84 1011 10 16.0934 0 0
4:52 pm 16:52 Cloudy with Light Snow 32 0 24 -4.4 73 73 W 13 20 29.88 1012 6 9.65604 0.001 0.001
5:52 pm 17:52 Mostly Cloudy 31 -0.6 23 -5 72 72 WSW 7 11 29.91 1013 10 16.0934 0.001 0.001
6:52 pm 18:52 Mostly Cloudy 30 -1.1 23 -5 75 75 SW 8 13 29.94 1014 10 16.0934 0 0
7:52 pm 19:52 Mostly Cloudy 30 -1.1 25 -3.9 82 82 SW 7 11 29.97 1015 10 16.0934 0 0
8:52 pm 20:52 Mostly Cloudy 29 -1.7 25 -3.9 85 85 SSW 6 9 29.99 1016 10 16.0934 0 0
9:52 pm 21:52 Cloudy 29 -1.7 25 -3.9 85 85 SSW 6 9 30.02 1017 10 16.0934 0 0
10:52 pm 22:52 Mostly Clear 27 -2.8 24 -4.4 89 89 SSW 6 9 30.04 1017 10 16.0934 0 0
11:52 pm 23:52 Partly Cloudy 27 -2.8 23 -5 85 85 SSW 6 9 30.06 1018 10 16.0934 0 0

Powered by AerisWeather